[[{"header":{"parameterUnit":"m.s-1","parameterCategory":1,"la1":30.2991,"la2":30.254,"lo1":-89.0895,"lo2":-89.0444,"dy":0.0017,"dx":0.0017,"nx":28,"ny":28,"refTime":"2025-04-01T03:00:00:Z","depth":0,"parameterNumber":2,"parameterNumberName":"U-component_of_WINDS"},"data":[0,0,0,0,0,0,0,0,0,0,0,0,0,0,0,0,0,0,0,0,0,0,0,0,0,0,0,0,0,0,0,0,0,0,0,0,0,0,0,0,0,0,0,0,0,0,0,0,0,0,0,0,0,0,0,0,0,0,-4.1,-4.1002,0,-4.1155,-4.1156,-4.1158,-4.12,-4.1199,-4.1198,-4.1197,-4.1356,-4.1361,-4.1366,0,0,0,0,0,0,0,0,0,0,0,0,0,-4.0742,-4.0747,-4.1,-4.1002,-4.1004,-4.1154,-4.1156,-4.1159,-4.12,-4.1199,-4.1198,-4.1197,-4.1355,-4.1361,-4.1367,0,0,0,0,0,0,0,0,0,0,0,0,0,-4.0871,-4.0748,-4.1,-4.1043,-4.1048,-4.1154,-4.1156,-4.1159,-4.1201,-4.1199,-4.1198,-4.1197,-4.1353,-4.136,-4.1368,-4.1442,0,0,-4.1391,-4.1394,0,0,0,0,0,0,0,0,-4.0864,-4.0881,-4.1034,-4.104,-4.1046,-4.1157,-4.1124,-4.1254,-4.1201,-4.1143,-4.1197,-4.1196,-4.1291,-4.1304,-4.1336,-4.1449,-4.1456,-4.1392,-4.1396,-4.1399,-4.1402,0,0,0,0,0,0,0,-4.0855,-4.0874,-4.1061,-4.1037,-4.1044,-4.1055,-4.1072,-4.1149,-4.1223,-4.1148,-4.1151,-4.1169,-4.1294,-4.1328,-4.134,-4.1458,-4.1391,-4.1398,-4.1403,-4.1406,-4.1641,-4.1642,0,0,0,0,0,0,-4.0838,-4.0866,-4.1056,-4.1066,-4.095,-4.1061,-4.1079,-4.1123,-4.1222,-4.1236,-4.117,-4.117,-4.1316,-4.1331,-4.1345,-4.1438,-4.1399,-4.1407,-4.1411,-4.1639,-4.1641,-4.1643,0,0,0,0,0,0,-4.0833,-4.0855,-4.105,-4.0967,-4.0993,-4.1066,-4.1115,-4.1126,-4.1161,-4.1239,-4.1252,-4.1191,-4.1315,-4.1335,-4.1417,-4.1444,-4.141,-4.1417,-4.1637,-4.1639,-4.1642,-4.1624,0,0,0,0,0,0,-4.0825,-4.0852,-4.0881,-4.0967,-4.0997,-4.1119,-4.1116,-4.113,-4.1173,-4.1175,-4.1262,-4.1275,-4.1316,-4.1406,-4.1425,-4.1454,-4.1423,-4.1635,-4.1638,-4.1641,-4.1623,-4.1626,-4.1629,0,0,0,0,0,-4.0816,-4.087,-4.0882,-4.0905,-4.1034,-4.112,-4.1137,-4.1183,-4.1175,-4.1205,-4.1255,-4.1272,-4.1439,-4.1414,-4.1436,-4.1468,-4.1633,-4.1637,-4.1641,-4.1622,-4.1625,-4.1629,0,0,0,0,0,0,-4.0785,-4.0882,-4.0897,-4.0981,-4.1042,-4.1127,-4.1165,-4.1185,-4.125,-4.1249,-4.1304,-4.1323,-4.1401,-4.1443,-4.1414,-4.1545,-4.1536,-4.1545,-4.1514,-4.1519,-4.1521,-4.1509,-4.1429,0,0,0,0,0,-4.0788,-4.0849,-4.0931,-4.0998,-4.1028,-4.1091,-4.113,-4.116,-4.1226,-4.1252,-4.1309,-4.1372,-4.1439,-4.1481,-4.1547,-4.163,-4.1649,-4.1663,-4.1666,-4.1668,-4.1674,-4.1721,-4.1727,-4.1655,-4.1655,-4.1655,0,0,-4.0795,-4.0855,-4.0891,-4.0993,-4.1044,-4.1106,-4.1113,-4.1179,-4.1226,-4.1262,-4.1343,-4.1387,-4.1462,-4.1545,-4.1584,-4.1582,-4.1698,-4.1672,-4.1673,-4.1679,-4.1725,-4.1732,-4.1738,-4.1658,-4.1657,-4.1657,0,0,-4.0839,-4.0891,-4.0952,-4.1003,-4.108,-4.1122,-4.1137,-4.122,-4.125,-4.1332,-4.1361,-4.1418,-4.1532,-4.1584,-4.1625,-4.1689,-4.1708,-4.171,-4.1724,-4.1769,-4.1775,-4.178,-4.1802,-4.181,-4.1716,-4.1716,-4.1716,0,-4.0837,-4.0932,-4.0981,-4.1045,-4.1089,-4.1125,-4.1187,-4.1235,-4.1329,-4.1359,-4.1356,-4.1499,-4.1552,-4.1647,-4.1663,-4.1696,-4.1714,-4.1699,-4.177,-4.1776,-4.1782,-4.1803,-4.1812,-4.1715,-4.1715,-4.1715,-4.1715,0,-4.0927,-4.0992,-4.1032,-4.1122,-4.1171,-4.1234,-4.1292,-4.1336,-4.1362,-4.1404,-4.1488,-4.1553,-4.1632,-4.1658,-4.1684,-4.1757,-4.1753,-4.1759,-4.1751,-4.1787,-4.1809,-4.1818,-4.1715,-4.1715,-4.1715,-4.1715,0,0,-4.0954,-4.1071,-4.1084,-4.1126,-4.1214,-4.1266,-4.1331,-4.1408,-4.1444,-4.1509,-4.1565,-4.166,-4.1667,-4.1713,-4.1746,-4.1786,-4.1832,-4.1787,-4.179,-4.1792,-4.1917,-4.191,-4.1919,-4.1846,-4.1847,-4.1849,-4.191,0,-4.1009,-4.1125,-4.1171,-4.1266,-4.1327,-4.1363,-4.142,-4.148,-4.1522,-4.158,-4.1627,-4.1694,-4.1697,-4.1726,-4.1767,-4.1818,-4.1858,-4.1814,-4.1898,-4.19,-4.1876,-4.1931,-4.1925,-4.1979,-4.1919,-4.192,-4.1921,0,-4.1087,-4.1152,-4.1253,-4.1334,-4.1361,-4.1411,-4.1486,-4.1541,-4.1611,-4.1639,-4.1691,-4.1721,-4.1791,-4.178,-4.1877,-4.1847,-4.1884,-4.1914,-4.1918,-4.1926,-4.1912,-4.1939,-4.1998,-4.2005,-4.1935,-4.1934,-4.1933,0,-4.1096,-4.1209,-4.1284,-4.1318,-4.1414,-4.1449,-4.149,-4.1559,-4.1602,-4.1668,-4.1697,-4.177,-4.181,-4.1866,-4.1915,-4.1903,-4.2008,-4.2001,-4.2033,-4.2031,-4.2052,-4.205,-4.2115,-4.2078,-4.2078,-4.2078,-4.2077,0,-4.1152,-4.1212,-4.1289,-4.1335,-4.1403,-4.1456,-4.1522,-4.1567,-4.1627,-4.1683,-4.1719,-4.177,-4.1833,-4.1893,-4.1933,-4.2007,-4.2025,-4.2049,-4.2059,-4.2045,-4.2042,-4.2069,-4.2066,-4.208,-4.2079,-4.2079,-4.2079,0,-4.1173,-4.1227,-4.1311,-4.1395,-4.1418,-4.1464,-4.1537,-4.1583,-4.1627,-4.1697,-4.1716,-4.1785,-4.1857,-4.1913,-4.2007,-4.2033,-4.2112,-4.2123,-4.2088,-4.2092,-4.2121,-4.2117,-4.2205,-4.2219,-4.2173,-4.2173,-4.2173,0,-4.1204,-4.1251,-4.134,-4.1379,-4.142,-4.1484,-4.1528,-4.1582,-4.1627,-4.171,-4.1747,-4.1821,-4.1884,-4.1997,-4.2056,-4.2128,-4.2141,-4.2167,-4.2152,-4.2137,-4.214,-4.2136,-4.2141,-4.2168,-4.2168,-4.2169,-4.2169,0,-4.1253,-4.1277,-4.134,-4.1412,-4.1464,-4.1524,-4.1584,-4.1615,-4.1679,-4.1728,-4.1802,-4.1851,-4.1947,-4.202,-4.2099,-4.2142,-4.2166,-4.2173,-4.2184,-4.217,-4.2148,-4.216,-4.2092,-4.2171,-4.217,-4.217,-4.217,-4.217,-4.1279,-4.1323,-4.1392,-4.1461,-4.1512,-4.1567,-4.1615,-4.1664,-4.1727,-4.1808,-4.1837,-4.1913,-4.1982,-4.209,-4.2134,-4.2195,-4.2196,-4.2212,-4.2216,-4.2219,-4.2217,-4.2139,-4.221,-4.221,-4.221,-4.221,-4.221,0,-4.133,-4.1376,-4.1439,-4.1522,-4.1576,-4.1594,-4.1662,-4.1706,-4.1772,-4.1834,-4.1895,-4.198,-4.2052,-4.2116,-4.2191,-4.2227,-4.224,-4.2245,-4.2243,-4.2252,-4.2212,-4.2195,-4.2233,-4.2233,-4.2233,-4.2233,-4.2233,-4.2233,-4.1362,-4.1436,-4.1469,-4.1569,-4.1615,-4.1689,-4.1727,-4.1778,-4.1828,-4.1921,-4.1981,-4.2022,-4.2086,-4.2166,-4.2232,-4.225,-4.2275,-4.2277,-4.2297,-4.2258,-4.2255,-4.2252,-4.2236,-4.2282,-4.2283,-4.2332,-4.2332,-4.2333]},{"header":{"parameterUnit":"m.s-1","parameterCategory":1,"la1":30.2991,"la2":30.254,"lo1":-89.0895,"lo2":-89.0444,"dy":0.0017,"dx":0.0017,"nx":28,"ny":28,"refTime":"2025-04-01T03:00:00:Z","depth":0,"parameterNumber":3,"parameterNumberName":"V-component_of_WINDS"},"data":[0,0,0,0,0,0,0,0,0,0,0,0,0,0,0,0,0,0,0,0,0,0,0,0,0,0,0,0,0,0,0,0,0,0,0,0,0,0,0,0,0,0,0,0,0,0,0,0,0,0,0,0,0,0,0,0,0,0,5.7617,5.7619,0,5.7802,5.7804,5.7806,5.7839,5.7837,5.7836,5.7834,5.8022,5.8028,5.8034,0,0,0,0,0,0,0,0,0,0,0,0,0,5.7293,5.7299,5.7617,5.7619,5.7621,5.7801,5.7804,5.7807,5.7839,5.7837,5.7835,5.7834,5.802,5.8027,5.8035,0,0,0,0,0,0,0,0,0,0,0,0,0,5.7451,5.73,5.7616,5.766,5.7665,5.7801,5.7804,5.7807,5.784,5.7837,5.7835,5.7833,5.8017,5.8026,5.8036,5.8141,0,0,5.8065,5.8069,0,0,0,0,0,0,0,0,5.7442,5.7463,5.7651,5.7657,5.7663,5.7795,5.7758,5.7919,5.784,5.7773,5.7834,5.7832,5.7948,5.7963,5.8003,5.815,5.8158,5.8066,5.8072,5.8076,5.8079,0,0,0,0,0,0,0,5.7431,5.7455,5.769,5.7654,5.7661,5.767,5.769,5.7789,5.7871,5.7779,5.7782,5.7803,5.7951,5.7993,5.8007,5.8161,5.8066,5.8074,5.808,5.8084,5.8407,5.841,0,0,0,0,0,0,5.7412,5.7446,5.7684,5.7695,5.7545,5.7678,5.77,5.7755,5.787,5.7886,5.7805,5.7804,5.7978,5.7996,5.8014,5.8148,5.8076,5.8085,5.8091,5.8404,5.8408,5.8411,0,0,0,0,0,0,5.7405,5.7433,5.7677,5.7572,5.7603,5.7686,5.7747,5.776,5.7802,5.789,5.7905,5.7833,5.7977,5.8001,5.811,5.8154,5.8089,5.8098,5.8401,5.8405,5.8409,5.8413,0,0,0,0,0,0,5.7396,5.7431,5.7471,5.7572,5.7609,5.777,5.775,5.7765,5.7819,5.782,5.792,5.7935,5.7977,5.8096,5.812,5.8166,5.8106,5.8397,5.8403,5.8408,5.841,5.8417,5.8424,0,0,0,0,0,5.7384,5.7464,5.7473,5.7502,5.7661,5.7772,5.7793,5.784,5.7822,5.7865,5.7921,5.7932,5.8145,5.8107,5.8134,5.8184,5.8395,5.8401,5.8407,5.8407,5.8416,5.8423,0,0,0,0,0,0,5.7364,5.7478,5.7489,5.7604,5.7678,5.7777,5.7831,5.7848,5.7928,5.7925,5.798,5.8003,5.811,5.8158,5.8113,5.8294,5.8269,5.8281,5.8259,5.8268,5.8275,5.8262,5.8114,0,0,0,0,0,5.7373,5.7454,5.7549,5.7641,5.7678,5.7748,5.7798,5.7829,5.7908,5.7939,5.8003,5.8079,5.8164,5.8219,5.8301,5.8416,5.844,5.8465,5.8472,5.8477,5.8487,5.8555,5.8568,5.8431,5.8431,5.8431,0,0,5.7393,5.7465,5.7512,5.7639,5.77,5.7783,5.7774,5.7862,5.7924,5.7952,5.8061,5.8111,5.8199,5.8313,5.8366,5.8356,5.853,5.8485,5.8489,5.8496,5.8563,5.8576,5.8587,5.8436,5.8435,5.8434,0,0,5.7471,5.7533,5.7618,5.768,5.7773,5.782,5.7841,5.7938,5.7973,5.8083,5.8107,5.8182,5.8325,5.8389,5.844,5.8545,5.8559,5.857,5.8607,5.8672,5.8683,5.8693,5.8733,5.8746,5.858,5.858,5.858,0,5.7483,5.761,5.7659,5.7747,5.7803,5.7833,5.7921,5.7978,5.8094,5.8132,5.8119,5.8303,5.8364,5.8495,5.8521,5.856,5.8586,5.8559,5.8678,5.8688,5.8698,5.8737,5.8751,5.8581,5.8581,5.858,5.858,0,5.7621,5.7709,5.7766,5.7879,5.7941,5.8028,5.8091,5.8149,5.8174,5.8222,5.8335,5.8411,5.8511,5.8543,5.8568,5.8679,5.867,5.8666,5.8643,5.8711,5.8749,5.8764,5.8582,5.8582,5.8581,5.8581,0,0,5.7692,5.7832,5.7853,5.7906,5.8012,5.8081,5.817,5.8269,5.8318,5.8397,5.8474,5.8596,5.8595,5.8653,5.8685,5.8742,5.8825,5.8733,5.8736,5.8749,5.8954,5.8957,5.8974,5.8834,5.8837,5.8839,5.8948,0,5.7784,5.7945,5.7994,5.8129,5.8212,5.8243,5.8321,5.8395,5.8443,5.852,5.8573,5.866,5.8651,5.8686,5.8744,5.8802,5.8867,5.8795,5.8908,5.8911,5.8887,5.8993,5.8996,5.9095,5.8962,5.8965,5.8967,0,5.7914,5.7997,5.8141,5.824,5.8277,5.8346,5.8442,5.8515,5.8601,5.8632,5.8698,5.8726,5.8822,5.8792,5.8925,5.8875,5.8924,5.896,5.8965,5.8979,5.8944,5.9011,5.9127,5.9142,5.899,5.8988,5.8986,0,5.7954,5.8102,5.8208,5.8252,5.8369,5.8418,5.8469,5.8552,5.8609,5.8693,5.8731,5.8824,5.8876,5.8947,5.9001,5.8974,5.913,5.9104,5.916,5.9159,5.9193,5.919,5.932,5.9221,5.922,5.922,5.922,0,5.8054,5.8141,5.8228,5.8293,5.8393,5.8448,5.8545,5.8598,5.8672,5.8749,5.878,5.8852,5.8917,5.8997,5.9039,5.9145,5.9167,5.9196,5.9207,5.9195,5.9191,5.9228,5.9224,5.9224,5.9223,5.9223,5.9222,0,5.8116,5.8177,5.8296,5.8398,5.8425,5.8495,5.8582,5.8648,5.8697,5.8794,5.882,5.8899,5.8995,5.9055,5.9177,5.9206,5.9323,5.9329,5.9294,5.9299,5.9353,5.9348,5.9512,5.9538,5.942,5.9421,5.9422,0,5.8176,5.8245,5.8355,5.8409,5.8461,5.8548,5.8607,5.8664,5.8725,5.8829,5.8882,5.8981,5.9064,5.9217,5.9285,5.9379,5.939,5.9441,5.9404,5.9391,5.9393,5.939,5.9398,5.9447,5.9448,5.9449,5.945,0,5.8278,5.8306,5.8391,5.8487,5.8557,5.8635,5.8713,5.8756,5.8827,5.8893,5.8993,5.9057,5.9184,5.9282,5.9383,5.9436,5.9456,5.9461,5.9479,5.9469,5.9446,5.9462,5.9313,5.9457,5.9456,5.9456,5.9455,5.9455,5.8344,5.8407,5.8495,5.8589,5.8654,5.8727,5.8795,5.8854,5.8938,5.9046,5.9075,5.918,5.9266,5.9404,5.9459,5.9543,5.9535,5.9561,5.9568,5.9574,5.9577,5.9432,5.9561,5.9561,5.956,5.956,5.956,0,5.845,5.8508,5.8594,5.8704,5.8778,5.879,5.8878,5.894,5.9032,5.9111,5.9192,5.9309,5.9405,5.9481,5.958,5.9633,5.9645,5.9657,5.9655,5.9668,5.9576,5.9552,5.9646,5.9646,5.9646,5.9646,5.9646,5.9646,5.8514,5.8623,5.8661,5.8803,5.8862,5.8966,5.9015,5.9083,5.9147,5.9276,5.9356,5.9406,5.9485,5.959,5.968,5.97,5.9736,5.9747,5.9769,5.9683,5.9673,5.9665,5.9642,5.9754,5.9754,5.9854,5.9855,5.9856]}]]